OK2ILA-6 Weather Reports


Display with metric or nautical units.
time (UTC)temp
F
wind
direction
speed
MPH
gust
MPH
rain 1hr
in
rain 24hr
in
rain mn
in
humidity
%
barometer
mb
20260507151003 72 0.0 0.0 0.00 0.00 0.00 52 1010.1
20260507150003 72 0.0 0.0 0.00 0.00 0.00 52 1010.2
20260507145002 72 0.0 0.0 0.00 0.00 0.00 53 1010.0
20260507144003 72 0.0 0.0 0.00 0.00 0.00 53 1010.0
20260507143003 72 0.0 0.0 0.00 0.00 0.00 53 1010.0
20260507142003 72 0.0 0.0 0.00 0.00 0.00 51 1009.9
20260507141002 74 0.0 0.0 0.00 0.00 0.00 50 1010.0
20260507140002 74 0.0 0.0 0.00 0.00 0.00 48 1009.8
20260507135003 73 0.0 0.0 0.00 0.00 0.00 47 1010.0
20260507134003 74 0.0 0.0 0.00 0.00 0.00 46 1010.0
20260507133002 74 0.0 0.0 0.00 0.00 0.00 48 1010.1
20260507132002 73 0.0 0.0 0.00 0.00 0.00 49 1010.1
20260507131003 73 0.0 0.0 0.00 0.00 0.00 48 1010.2
20260507130003 74 0.0 0.0 0.00 0.00 0.00 47 1010.2
20260507125003 75 0.0 0.0 0.00 0.00 0.00 46 1010.2
20260507124002 74 0.0 0.0 0.00 0.00 0.00 48 1010.2
20260507123002 74 0.0 0.0 0.00 0.00 0.00 46 1010.3
20260507122004 74 0.0 0.0 0.00 0.00 0.00 47 1010.2
20260507121003 75 0.0 0.0 0.00 0.00 0.00 44 1010.1
20260507120002 76 0.0 0.0 0.00 0.00 0.00 44 1010.2
20260507115002 76 0.0 0.0 0.00 0.00 0.00 44 1010.2
20260507114003 76 0.0 0.0 0.00 0.00 0.00 46 1010.2
20260507113003 74 0.0 0.0 0.00 0.00 0.00 46 1010.2
20260507112003 75 0.0 0.0 0.00 0.00 0.00 46 1010.4
20260507111002 76 0.0 0.0 0.00 0.00 0.00 46 1010.2
20260507110002 76 0.0 0.0 0.00 0.00 0.00 47 1010.2
20260507105003 74 0.0 0.0 0.00 0.00 0.00 48 1010.1
20260507104003 76 0.0 0.0 0.00 0.00 0.00 48 1010.0
20260507103002 75 0.0 0.0 0.00 0.00 0.00 49 1010.3
20260507102002 73 0.0 0.0 0.00 0.00 0.00 50 1010.2
20260507101003 72 0.0 0.0 0.00 0.00 0.00 54 1010.1
20260507100003 72 0.0 0.0 0.00 0.00 0.00 54 1010.0
20260507095003 70 0.0 0.0 0.00 0.00 0.00 54 1010.0
20260507094002 72 0.0 0.0 0.00 0.00 0.00 53 1010.0
20260507093002 72 0.0 0.0 0.00 0.00 0.00 54 1009.8
20260507092003 73 0.0 0.0 0.00 0.00 0.00 53 1009.8
20260507091003 74 0.0 0.0 0.00 0.00 0.00 54 1009.8
20260507090002 73 0.0 0.0 0.00 0.00 0.00 53 1009.6
20260507085002 73 0.0 0.0 0.00 0.00 0.00 54 1009.6
20260507084003 72 0.0 0.0 0.00 0.00 0.00 58 1009.4
20260507083003 72 0.0 0.0 0.00 0.00 0.00 58 1009.4
20260507082003 72 0.0 0.0 0.00 0.00 0.00 58 1009.4
20260507081002 72 0.0 0.0 0.00 0.00 0.00 58 1009.2
20260507080003 72 0.0 0.0 0.00 0.00 0.00 59 1009.2
20260507075003 70 0.0 0.0 0.00 0.00 0.00 64 1009.0
20260507074003 70 0.0 0.0 0.00 0.00 0.00 64 1009.0
20260507073003 70 0.0 0.0 0.00 0.00 0.00 66 1009.1
20260507072002 68 0.0 0.0 0.00 0.00 0.00 69 1009.0
20260507071003 67 0.0 0.0 0.00 0.00 0.00 70 1008.8
20260507070004 66 0.0 0.0 0.00 0.00 0.00 72 1008.8
20260507065003 64 0.0 0.0 0.00 0.00 0.00 72 1008.8
20260507064002 64 0.0 0.0 0.00 0.00 0.00 73 1008.8
20260507063002 64 0.0 0.0 0.00 0.00 0.00 74 1008.6
20260507062003 63 0.0 0.0 0.00 0.00 0.00 76 1008.4
20260507061003 62 0.0 0.0 0.00 0.00 0.00 78 1008.4
20260507060003 62 0.0 0.0 0.00 0.00 0.00 78 1008.4
20260507055002 62 0.0 0.0 0.00 0.00 0.00 79 1008.4
20260507054003 62 0.0 0.0 0.00 0.00 0.00 80 1008.2
20260507053003 60 0.0 0.0 0.00 0.00 0.00 82 1008.1
20260507052003 60 0.0 0.0 0.00 0.00 0.00 83 1008.0
20260507051002 59 0.0 0.0 0.00 0.00 0.00 84 1008.2
20260507050002 59 0.0 0.0 0.00 0.00 0.00 84 1007.9
20260507045003 58 0.0 0.0 0.00 0.00 0.00 86 1008.0
20260507044003 58 0.0 0.0 0.00 0.00 0.00 86 1007.8
20260507043003 58 0.0 0.0 0.00 0.00 0.00 86 1007.6
20260507042002 58 0.0 0.0 0.00 0.00 0.00 86 1007.5
20260507041003 58 0.0 0.0 0.00 0.00 0.00 86 1007.4
20260507040003 58 0.0 0.0 0.00 0.00 0.00 86 1007.4
20260507035003 58 0.0 0.0 0.00 0.00 0.00 86 1007.2
20260507034003 57 0.0 0.0 0.00 0.00 0.00 86 1006.9
20260507033002 57 0.0 0.0 0.00 0.00 0.00 86 1006.8
20260507032003 57 0.0 0.0 0.00 0.00 0.00 86 1007.0
20260507031003 57 0.0 0.0 0.00 0.00 0.00 85 1007.0
20260507030003 57 0.0 0.0 0.00 0.00 0.00 85 1006.8
20260507025002 56 0.0 0.0 0.00 0.00 0.00 85 1006.8
20260507024003 56 0.0 0.0 0.00 0.00 0.00 86 1006.6